Wind_Speed
5 7 8 8 8 7 7 5 3 5 5 4 8 11 13 12 12 13 13 14 15 14 13 11 10 9 9 9 10 12 13 15 18 20 21 23 24 25 25 26 26 27 27 28
3 3 6 9 9 11 8 10 6 7 4 7 11 14 13 13 13 13 13 12 11 10 9 9 9 9 10 11 12 12 13 13 14 16 18 20 22 24 26 26 27 27 27 28
2 3 3 5 11 12 10 9 10 9 9 5 5 10 10 9 10 9 8 7 7 7 8 9 11 13 15 16 17 17 18 18 18 19 20 20 21 23 25 26 28 29 30 30
1 2 2 4 7 9 13 11 11 10 7 3 3 4 5 5 4 4 5 6 8 10 11 12 13 14 16 18 20 22 23 24 24 25 25 25 26 26 26 27 27 29 30 31
2 7 7 5 5 7 5 12 13 11 8 4 1 2 2 4 6 7 9 11 12 13 15 16 16 17 18 19 20 22 24 26 27 28 29 30 31 31 31 31 31 31 30 31
3 2 1 3 1 2 4 1 7 8 6 4 7 10 7 8 11 13 16 17 17 18 18 19 19 21 22 22 23 23 24 26 27 29 30 30 31 32 34 35 35 34 33 33
5 3 2 5 2 1 1 7 14 14 15 14 15 18 21 23 25 26 26 26 26 26 25 25 26 26 26 27 27 26 26 26 27 29 30 30 31 31 32 32 33 35 36 36
3 0 1 5 4 3 4 9 17 19 23 25 26 27 28 29 29 31 32 33 32 32 32 32 32 31 31 30 30 29 28 28 28 29 29 30 30 30 30 31 31 32 33 33
3 3 5 9 11 11 11 18 26 30 33 41 42 40 35 35 39 39 38 38 39 39 40 39 38 37 35 34 32 31 29 28 28 29 30 30 30 30 30 29 29 29 29 30
8 7 11 16 18 22 26 33 38 38 41 48 51 45 42 39 38 40 43 45 46 46 45 43 42 40 37 35 34 31 30 29 28 28 29 29 30 30 29 29 29 28 28 27
12 15 20 22 16 31 38 43 46 46 51 53 52 49 44 41 39 38 39 41 42 42 42 42 42 40 37 35 34 31 29 28 28 27 28 28 29 29 29 29 29 29 29 28
20 25 31 36 42 47 54 57 59 59 59 49 46 47 44 43 39 38 38 38 39 39 39 38 39 37 35 34 33 30 28 28 27 27 27 27 27 27 28 28 29 29 29 29
35 40 47 51 53 52 53 51 48 47 46 47 43 43 42 42 39 38 38 37 36 37 38 36 35 34 34 33 31 28 28 28 27 27 27 26 26 26 26 27 27 28 29 30
43 53 52 47 46 45 45 43 41 39 38 38 39 37 38 40 38 36 36 35 36 36 34 33 33 32 34 32 29 27 27 27 27 27 26 26 27 26 26 26 26 27 28 29
41 38 41 43 42 40 39 38 36 33 32 29 29 31 30 32 34 33 31 33 33 33 31 31 32 30 32 31 28 27 27 26 27 26 26 26 26 26 27 27 28 27 28 30
38 38 38 39 39 37 35 33 31 29 26 25 25 23 23 24 25 26 27 27 28 29 29 29 28 28 30 29 28 27 26 26 26 26 26 26 26 26 27 27 27 27 27 27
39 38 38 38 39 37 33 30 29 27 25 24 22 20 18 17 18 18 20 22 23 24 25 26 25 27 28 27 26 25 25 25 25 26 25 25 26 26 26 25 24 24 24 25
35 36 37 38 39 36 32 28 25 23 23 22 20 18 16 15 14 14 15 16 18 19 21 23 23 24 24 24 23 23 24 25 25 24 25 25 25 25 24 24 23 23 23 23
33 34 34 35 36 36 33 29 24 21 20 19 18 16 15 13 12 11 11 12 13 14 16 16 19 20 20 21 21 22 23 23 23 23 23 23 23 23 23 23 22 21 21 21
32 32 32 32 33 34 32 28 24 19 18 17 15 14 13 12 10 9 8 8 8 9 11 12 14 15 17 19 19 21 21 21 22 22 22 22 23 23 23 22 21 21 21 21
32 32 32 32 32 32 31 30 25 20 17 16 15 13 12 11 9 7 6 5 4 5 7 8 10 11 13 15 16 17 18 19 20 20 21 22 23 23 22 22 22 21 21 20
32 32 33 32 31 30 30 28 25 21 17 14 12 11 10 9 9 7 6 4 3 4 4 5 6 8 9 13 13 15 16 18 19 20 21 21 22 22 23 23 22 21 21 20
32 31 32 31 30 30 29 26 24 21 19 17 15 12 11 10 8 7 5 4 4 5 3 2 2 10 11 12 12 14 15 16 17 18 19 21 22 23 22 22 22 22 21 20
30 30 30 30 29 28 26 25 24 22 21 19 17 15 11 8 9 8 7 6 9 6 3 6 12 8 9 11 12 13 15 16 18 19 19 20 20 21 20 20 19 20 19 19
30 30 29 29 29 29 27 25 23 21 18 18 17 15 14 12 10 8 6 7 10 10 9 9 12 11 11 12 13 14 15 16 17 17 17 18 18 18 17 17 17 16 16 17
29 29 31 31 32 30 28 26 26 24 21 19 17 15 13 12 11 10 10 8 8 8 9 9 10 11 12 11 11 12 13 14 16 16 16 16 17 16 16 16 16 15 15 15
29 28 27 28 28 28 29 29 27 24 23 21 18 17 15 14 12 11 10 9 9 8 8 8 8 8 9 10 10 10 11 12 13 14 14 14 15 15 15 14 14 14 13 14
Wind_Direction
75 70 75 54 35 25 40 35 356 337 310 303 231 217 212 215 220 220 217 214 212 211 211 213 215 218 220 221 222 223 227 230 233 232 232 232 234 236 237 238 238 239 239 240
96 91 82 57 53 45 37 25 13 7 5 309 228 219 216 218 218 218 217 216 214 215 217 223 233 241 245 246 245 242 239 238 238 238 237 235 236 237 239 241 242 242 242 243
108 138 135 29 36 40 46 44 25 11 341 340 227 219 216 226 221 218 222 229 240 249 257 261 263 262 261 262 262 259 257 253 249 247 247 247 245 244 244 245 246 248 250 249
82 128 111 80 56 58 51 50 37 20 12 95 133 188 225 232 238 262 276 272 264 260 260 261 263 265 267 268 268 268 266 262 259 256 253 251 250 250 250 250 249 249 249 250
71 66 122 32 29 45 61 36 38 40 47 43 276 221 42 343 313 289 277 271 268 268 269 272 274 276 275 273 270 268 267 265 262 260 258 256 253 251 251 251 251 252 252 252
66 96 113 345 290 345 337 180 9 7 7 304 280 272 280 263 269 275 278 277 276 275 276 278 280 280 279 278 275 273 268 264 262 258 257 257 256 255 254 252 251 251 251 252
53 96 147 15 329 298 247 319 319 317 314 303 287 280 277 274 269 264 266 269 272 274 276 278 280 280 280 279 277 275 272 268 263 259 255 253 254 255 255 255 254 253 252 252
12 108 196 319 307 223 289 321 322 320 320 312 302 291 284 279 273 270 267 267 269 271 275 277 279 279 279 279 277 275 273 268 264 260 258 255 254 255 255 256 256 256 255 253
338 244 266 323 290 268 273 302 308 306 309 312 306 302 293 279 268 266 265 265 267 270 272 274 276 277 276 275 275 274 272 269 264 259 256 255 254 255 255 255 255 256 256 255
324 286 266 285 302 267 276 290 296 297 300 309 304 296 290 281 273 267 263 262 263 264 266 269 271 273 273 272 272 272 271 269 265 259 255 253 253 254 255 256 255 255 255 254
309 282 278 290 277 288 283 294 295 292 297 299 297 290 286 279 274 269 265 263 262 263 263 264 266 267 269 268 268 268 267 266 263 258 254 253 252 253 254 256 256 257 256 255
311 309 305 300 299 298 299 298 298 296 296 294 287 282 278 275 272 269 266 263 262 262 261 260 261 263 263 263 264 264 263 261 257 254 253 253 253 254 254 254 257 257 257 257
314 312 311 311 309 308 306 305 303 300 298 294 288 283 277 272 269 266 264 261 260 258 258 258 259 258 259 259 259 258 257 255 252 251 251 252 253 254 255 259 256 257 257 258
313 313 310 313 314 313 310 308 305 302 298 293 289 284 278 276 271 266 264 261 258 257 257 257 255 255 255 255 255 253 249 249 249 249 250 252 254 256 256 256 259 263 262 259
319 321 321 323 321 317 315 312 311 310 307 301 293 288 279 273 272 268 263 260 258 257 256 254 252 252 253 253 250 247 245 244 245 247 250 251 254 257 259 261 263 262 263 266
333 332 331 330 329 327 325 323 321 321 319 315 309 300 289 279 273 269 265 259 256 254 253 252 251 248 248 248 246 244 242 241 243 244 247 250 254 257 260 262 263 264 264 262
335 335 338 339 338 338 336 333 330 329 327 325 321 315 304 289 280 273 264 260 256 253 250 247 245 244 245 244 243 241 240 240 243 246 249 253 255 258 259 261 262 263 263 264
338 340 342 343 344 344 343 340 336 333 332 332 330 326 319 306 294 282 271 263 257 254 252 247 243 242 242 242 241 239 238 239 242 246 249 251 254 256 259 260 261 261 260 261
343 344 346 346 347 350 348 345 342 339 337 336 335 335 331 323 312 298 284 271 261 253 251 249 243 240 240 240 238 236 237 241 245 248 249 250 252 253 256 258 260 261 260 259
346 347 349 351 350 352 352 352 350 346 340 341 342 341 340 337 331 322 307 288 274 262 252 246 241 239 238 240 241 242 244 244 243 243 245 248 250 252 253 255 256 257 258 259
349 350 352 353 355 353 356 357 357 353 353 349 347 347 349 349 348 345 334 313 290 266 254 248 243 238 236 236 239 241 241 242 242 242 244 245 248 250 253 255 254 254 256 258
352 353 354 355 355 354 358 359 1 358 355 353 348 344 345 347 348 349 352 344 315 276 263 250 236 232 233 235 236 237 237 239 241 242 244 247 249 250 251 253 254 255 256 258
354 356 355 355 355 359 358 357 360 1 0 359 357 358 351 346 348 344 340 334 316 291 276 243 306 232 226 242 242 244 244 244 245 245 245 246 248 251 253 255 255 254 256 258
357 359 358 356 358 1 357 358 1 359 359 356 351 350 346 338 329 324 321 307 282 299 275 240 256 268 260 253 249 246 246 247 248 250 252 254 254 255 256 255 254 252 252 253
0 0 360 0 4 5 1 1 0 4 0 350 352 348 344 344 342 334 322 301 294 295 286 273 273 280 270 266 263 259 257 256 256 255 254 253 254 254 254 253 252 250 249 250
3 2 2 4 5 4 4 6 5 4 5 2 359 353 349 345 342 337 333 326 313 304 296 289 283 281 281 278 273 267 262 260 260 259 256 254 253 252 250 249 249 248 247 245
4 6 6 6 4 4 8 10 8 6 7 4 1 0 358 354 350 346 341 334 328 320 312 306 303 298 290 287 283 276 270 265 260 258 256 253 252 250 248 247 245 244 241 238
Height
2986 2986 2985 2985 2984 2983 2982 2981 2981 2980 2979 2978 2978 2979 2980 2981 2982 2983 2984 2985 2986 2986 2987 2987 2988 2990 2991 2993 2995 2997 2998 3000 3001 3003 3005 3007 3009 3011 3013 3016 3018 3020 3023 3025
2987 2987 2987 2987 2986 2985 2983 2982 2981 2980 2979 2977 2977 2978 2979 2980 2981 2982 2983 2983 2983 2984 2985 2986 2987 2988 2989 2991 2992 2994 2995 2996 2998 2999 3001 3002 3004 3006 3007 3009 3011 3013 3015 3017
2988 2987 2987 2988 2988 2987 2985 2984 2983 2981 2980 2977 2977 2978 2980 2980 2981 2981 2981 2981 2982 2982 2983 2984 2985 2985 2986 2987 2988 2989 2990 2992 2993 2995 2996 2997 2998 3000 3001 3003 3004 3006 3008 3010
2987 2987 2988 2992 2990 2988 2987 2986 2984 2982 2980 2979 2979 2980 2980 2981 2980 2980 2980 2981 2981 2982 2982 2982 2982 2982 2982 2982 2982 2982 2983 2985 2986 2988 2989 2990 2992 2993 2994 2995 2997 2999 3000 3002
2988 2988 2992 2991 2990 2990 2988 2988 2985 2983 2982 2982 2981 2981 2981 2981 2981 2981 2980 2979 2979 2978 2978 2977 2977 2977 2977 2977 2977 2976 2976 2977 2977 2979 2980 2981 2983 2985 2986 2987 2989 2991 2992 2994
2988 2988 2989 2992 2990 2989 2988 2989 2986 2985 2983 2982 2981 2980 2982 2979 2978 2978 2977 2976 2975 2974 2973 2972 2972 2971 2971 2970 2970 2970 2970 2970 2969 2970 2971 2972 2973 2975 2976 2978 2980 2982 2983 2985
2990 2990 2991 2990 2989 2988 2988 2992 2984 2983 2982 2980 2979 2977 2975 2974 2972 2971 2970 2969 2968 2967 2966 2966 2965 2965 2964 2963 2963 2963 2962 2962 2962 2962 2963 2963 2964 2965 2967 2968 2970 2972 2974 2976
2991 2991 2992 2989 2988 2988 2987 2983 2981 2979 2976 2974 2973 2971 2968 2966 2964 2962 2961 2959 2959 2958 2958 2957 2957 2956 2955 2955 2954 2954 2954 2953 2953 2953 2954 2955 2956 2957 2958 2959 2961 2962 2964 2966
2994 2992 2988 2986 2984 2982 2979 2976 2973 2970 2967 2964 2961 2959 2957 2954 2953 2952 2950 2949 2948 2948 2947 2947 2946 2946 2946 2945 2944 2944 2944 2944 2944 2944 2945 2946 2947 2948 2950 2951 2952 2953 2954 2956
2992 2989 2987 2984 2981 2977 2973 2969 2965 2960 2956 2953 2948 2946 2943 2940 2938 2936 2936 2935 2935 2934 2935 2935 2934 2934 2935 2935 2934 2934 2934 2934 2934 2935 2936 2937 2938 2939 2941 2942 2944 2945 2946 2947
2988 2985 2982 2978 2975 2969 2964 2958 2952 2948 2943 2938 2933 2930 2926 2924 2924 2922 2920 2920 2920 2920 2921 2922 2921 2922 2923 2923 2923 2924 2924 2924 2924 2925 2926 2928 2929 2931 2932 2933 2935 2936 2937 2939
2983 2980 2975 2971 2966 2959 2950 2943 2937 2929 2924 2921 2916 2912 2910 2908 2908 2906 2906 2906 2906 2907 2907 2908 2908 2910 2911 2911 2912 2914 2915 2915 2915 2917 2918 2919 2921 2922 2924 2925 2926 2928 2929 2930
2977 2972 2966 2958 2949 2941 2930 2924 2917 2911 2905 2899 2898 2894 2892 2891 2892 2891 2891 2891 2892 2892 2893 2895 2897 2898 2899 2900 2902 2904 2905 2905 2907 2908 2910 2911 2913 2914 2915 2916 2918 2919 2920 2921
2972 2959 2953 2945 2934 2927 2918 2910 2903 2897 2892 2887 2881 2880 2877 2875 2876 2876 2877 2878 2878 2879 2882 2883 2885 2887 2886 2889 2892 2894 2895 2896 2898 2900 2902 2903 2904 2906 2907 2908 2909 2910 2911 2912
2962 2952 2941 2931 2923 2915 2906 2898 2892 2886 2880 2875 2871 2866 2865 2863 2862 2863 2864 2865 2866 2868 2870 2871 2873 2876 2876 2879 2882 2884 2886 2888 2889 2891 2893 2895 2896 2898 2898 2899 2900 2902 2902 2902
2948 2941 2933 2924 2914 2905 2896 2888 2882 2876 2871 2865 2861 2857 2855 2853 2852 2852 2853 2854 2856 2857 2858 2860 2863 2864 2866 2869 2872 2874 2877 2879 2881 2883 2885 2887 2888 2889 2890 2891 2891 2892 2893 2893
2938 2932 2924 2916 2905 2896 2888 2881 2874 2868 2863 2858 2854 2850 2847 2845 2844 2844 2844 2845 2846 2848 2849 2851 2853 2855 2857 2860 2862 2865 2868 2870 2872 2874 2876 2878 2879 2880 2881 2882 2883 2884 2884 2884
2934 2925 2916 2907 2899 2890 2883 2876 2870 2864 2859 2854 2850 2846 2843 2841 2839 2839 2838 2838 2839 2840 2841 2843 2845 2847 2849 2852 2855 2857 2860 2862 2864 2866 2868 2869 2871 2872 2873 2874 2875 2876 2876 2877
2930 2922 2914 2904 2895 2886 2879 2872 2866 2861 2856 2852 2848 2844 2841 2838 2836 2835 2834 2834 2834 2835 2836 2837 2839 2840 2843 2845 2847 2850 2852 2854 2856 2859 2860 2862 2863 2864 2865 2867 2867 2868 2869 2869
2926 2919 2911 2903 2893 2885 2877 2870 2864 2859 2854 2850 2847 2843 2840 2837 2835 2833 2832 2831 2831 2831 2832 2833 2834 2836 2837 2839 2841 2843 2846 2848 2849 2851 2853 2854 2856 2857 2858 2859 2860 2861 2861 2862
2923 2915 2907 2899 2891 2883 2876 2868 2862 2857 2853 2848 2845 2842 2839 2836 2834 2832 2831 2830 2829 2829 2829 2830 2831 2832 2833 2835 2836 2838 2839 2841 2842 2844 2846 2847 2848 2850 2851 2852 2853 2853 2854 2855
2919 2911 2904 2897 2890 2882 2875 2868 2862 2856 2852 2848 2844 2841 2838 2836 2834 2832 2830 2829 2828 2827 2827 2827 2828 2829 2830 2830 2832 2833 2834 2835 2837 2838 2839 2840 2841 2842 2843 2844 2845 2846 2847 2848
2916 2909 2902 2895 2888 2880 2873 2868 2862 2857 2852 2847 2844 2841 2838 2835 2833 2832 2830 2829 2827 2826 2826 2827 2827 2825 2826 2826 2827 2828 2829 2830 2831 2832 2833 2833 2834 2835 2837 2838 2838 2839 2840 2841
2915 2908 2901 2894 2887 2881 2875 2868 2862 2856 2851 2847 2843 2840 2837 2835 2833 2830 2829 2828 2826 2825 2825 2824 2822 2823 2823 2823 2823 2824 2824 2824 2825 2826 2826 2827 2828 2828 2829 2830 2831 2832 2833 2834
2913 2906 2901 2894 2887 2880 2874 2868 2862 2857 2852 2847 2843 2839 2836 2833 2831 2829 2827 2825 2824 2823 2822 2821 2820 2820 2819 2819 2819 2819 2819 2819 2819 2820 2821 2821 2821 2822 2823 2824 2825 2826 2827 2828
2912 2905 2898 2891 2885 2880 2874 2868 2861 2856 2851 2846 2842 2838 2835 2832 2829 2827 2825 2823 2821 2820 2819 2818 2817 2816 2815 2815 2815 2814 2814 2814 2814 2814 2814 2815 2816 2817 2817 2818 2820 2821 2822 2823
2912 2906 2900 2894 2888 2881 2874 2867 2862 2857 2851 2846 2842 2838 2834 2831 2828 2825 2823 2821 2819 2817 2816 2815 2814 2813 2812 2811 2811 2810 2809 2809 2809 2809 2809 2810 2810 2811 2812 2813 2815 2816 2817 2818